EHI
0 0 0 0 0 0 0 0 0 0 0 0 0 0 0 0 0 0 0 0 0 0 0 0 0 0 0 0 0 0 0 0 0 0 0 0 0 0 0 0 0 0 0
0 0 0 0 0 0 0 0 0 0 0 0 0 0 0 0 0 0 0 0 0 0 0 0 0 0 0 0 0 0 0 0 0 0 0 0 0 0 0 0 0 0 0
0 0 0 0 0 0 0 0 0 0 0 0 0 0 0 0 0 0 0 0 0 0 0 0 0 0 0 0 0 0 0 0 0 0 0 0 0 0 0 0 0 0 0
0 0 0 0 0 0 0 0 0 0 0 0 0 0 0 0 0 0 0 0 0 0 0 0 0 0 0 0 0 0 0 0 0 0 0 0 0 0 0 0 0 0 0
0 0 0 0 0 0 0 0 0 0 0 0 0 0 0 0 0 0 0 0 0 0 0 0 0 0 0 0 0 0 0 0 0 0 0 0 0 0 0 0 0 0 0
0 0 0 0 0 0 0 0 0 0 0 0 0 0 0 0 0 0 0 0 0 0 0 0 0 0 0 0 0 0 0 0 0 0 0 0 0 0 0 0 0 0 0
0 0 0 0 0 0 0 0 0 0 0 0 0 0 0 0 0 0 0 0 0 0 0 0 0 0 0 0 0 0 0 0 0 0 0 0 0 0 0 0 0 0 0
0 0 0 0 0 0 0 0 0 0 0 0 0 0 0 0 0 0 0 0 0 0 0 0 0 0 0 0 0 0 0 0 0 0 0 0 0 0 0 0 0 0 0
0 0 0 0 0 0 0 0 0 0 0 0 0 0 0 0 0 0 0 0 0 0 0 0 0 0 0 0 0 0 0 0 0 0 0 0 0 0 0 0 0 0 0
0 0 0 0 0 0 0 0 0 0 0 0 0 0 0 0 0 0 0 0 0 0 0 0 0 0 0 0 0 0 0 0 0 0 0 0 0 0 0 0 0 0 0
0 0 0 0 0 0 0 0 0 0 0 0 0 0 0 0 0 0 0 0 0 0 0 0 0 0 0 0 0 0 0 0 0 0 0 0 0 0 0 0 0 0 0
0 0 0 0 0 0 0 0 0 0 0 0 0 0 0 0 0 0 0 0 0 0 0 0 0 0 0 0 0 0 0 0 0 0 0 0 0 0 0 0 0 0 0
0 0 0 0 0 0 0 0 0 0 0 0 0 0 0 0 0 0 0 0 0 0 0 0 0 0 0 0 0 0 0 0 0 0 0 0 0 0 0 0 0 0 0
0 0 0 0 0 0 0 0 0 0 0 0 0 0 0 0 0 0 0 0 0 0 0 0 0 0 0 0 0 0 0 0 0 0 0 0 0 0 0 0 0 0 0
0 0 0 0 0 0 0 0 0 0 0 0 0 0 0 0 0 0 0 0 0 0 0 0 0 0 0 0 0 0 0 0 0 0 0 0 0 0 0 0 0 0 0
0 0 0 0 0 0 0 0 0 0 0 0 0 0 0 0 0 0 0 0 0 0 0 0 0 0 0 0 0 0 0 0 0 0 0 0 0 0 0 0 0 0 0
0 0 0 0 0 0 0 0 0 0 0 0 0 0 0 0 0 0 0 0 0 0 0 0 0 0 0 0 0 0 0 0 0 0 0 0 0 0 0 0 0 0 0
0 0 0 0 0 0 0 0 0 0 0 0 0 0 0 0 0 0 0 0 0 0 0 0 0 0 0 0 0 0 0 0 0 0 0 0 0 0 0 0 0 0 0
0 0 0 0 0 0 0 0 0 0 0 0 0 0 0 0 0 0 0 0 0 0 0 0 0 0 0 0 0 0 0 0 0 0 0 0 0 0 0 0 0 0 0
0 0 0 0 0 0 0 0 0 0 0 0 0 0 0 0 0 0 0 0 0 0 0 0 0 0 0 0 0 0 0 0 0 0 0 0 0 0 0 0 0 0 0
0 0 0 0 0 0 0 0 0 0 0 0 0 0 0 0 0 0 0 0 0 0 0 0 0 0 0 0 0 0 0 0 0 0 0 0 0 0 0 0 0 0 0
0 0 0 0 0 0 0 0 0 0 0 0 0 0 0 0 0 0 0 0 0 0 0 0 0 0 0 0 0 0 0 0 0 0 0 0 0 0 0 0 0 0 0
0 0 0 0 0 0 0 0 0 0 0 0 0 0 0 0 0 0 0 0 0 0 0 0 0 0 0 0 0 0 0 0 0 0 0 0 0 0 0 0 0 0 0
0 0 0 0 0 0 0 0 0 0 0 0 0 0 0 0 0 0 0 0 0 0 0 0 0 0 0 0 0 0 0 0 0 0 0 0 0 0 0 0 0 0 0
0 0 0 0 0 0 0 0 0 0 0 0 0 0 0 0 0 0 0 0 0 0 0 0 0 0 0 0 0 0 0 0 0 0 0 0 0 0 0 0 0 0 0
0 0 0 0 0 0 0 0 0 0 0 0 0 0 0 0 0 0 0 0 0 0 0 0 0 0 0 0 0 0 0 0 0 0 0 0 0 0 0 0 0 0 0
Wind_Speed
1 2 2 2 2 2 2 3 4 5 5 5 5 6 6 7 6 5 4 10 12 14 18 21 22 22 23 24 25 26 26 27 28 28 28 29 28 29 29 29 29 29 28
2 1 2 3 3 3 3 3 4 5 4 4 5 6 6 6 6 7 6 8 12 13 15 19 21 22 22 23 24 25 26 27 28 29 30 30 30 29 30 31 31 31 31
3 3 3 4 4 4 5 4 5 4 5 5 5 6 5 6 7 7 7 6 7 11 13 16 18 20 21 22 23 24 25 26 27 29 30 30 30 30 31 32 32 33 33
6 5 4 4 5 5 5 5 4 5 5 6 6 6 6 6 8 8 7 6 5 5 7 11 13 17 20 22 23 24 24 24 25 26 28 30 31 31 32 34 34 34 35
8 6 5 5 6 5 5 6 5 5 6 6 6 6 6 7 8 8 8 8 8 8 7 11 15 16 18 21 24 24 24 24 25 25 26 27 28 30 32 34 35 36 37
9 7 5 6 6 5 5 6 6 6 5 6 8 7 8 8 6 5 9 10 10 10 9 10 9 12 17 20 23 25 26 26 26 26 26 27 28 28 29 31 33 35 38
8 7 5 5 6 5 6 6 5 6 5 5 4 6 6 6 5 8 10 9 9 9 9 9 8 9 9 17 20 25 28 28 28 27 26 26 27 27 28 29 30 31 33
7 7 7 5 6 5 6 6 4 4 4 5 4 5 5 6 4 9 7 6 8 6 8 12 10 11 9 7 12 22 25 25 25 24 24 25 26 27 27 28 28 29 31
7 6 6 5 5 5 4 5 5 5 4 5 4 3 4 5 9 4 7 8 6 8 8 8 10 9 11 9 10 15 18 20 23 25 26 26 26 27 28 29 28 28 28
6 6 5 5 5 4 5 5 5 4 5 4 4 3 4 7 6 7 5 5 8 9 8 10 9 10 12 11 12 18 19 22 27 29 29 29 29 29 30 31 31 30 29
6 5 5 4 4 4 4 5 5 5 3 4 4 4 6 6 6 9 12 7 6 5 6 7 8 9 11 11 10 15 26 30 31 32 32 32 32 32 32 32 33 33 32
4 5 4 4 4 3 3 4 4 5 5 5 4 4 5 5 7 8 13 13 10 6 6 6 7 8 9 9 15 22 28 31 33 34 35 35 35 34 34 35 35 35 34
3 4 4 4 3 4 4 4 4 6 6 6 5 5 5 6 7 8 11 13 15 10 7 6 6 7 10 8 9 22 24 30 32 34 35 36 36 35 35 36 36 35 34
3 4 4 4 5 5 5 5 4 5 6 6 8 8 6 6 6 7 8 11 16 15 10 8 5 6 7 6 13 25 15 28 31 33 35 35 36 35 35 35 35 35 34
3 4 4 5 5 5 5 5 4 6 6 6 7 8 7 6 6 6 6 6 10 19 18 12 7 7 6 7 15 12 11 23 31 32 33 33 34 35 35 35 35 35 34
4 4 4 5 5 5 5 5 5 6 7 7 7 9 9 7 6 6 6 5 6 11 19 15 11 10 11 14 21 14 12 30 30 31 32 33 35 35 35 35 35 35 34
4 4 4 5 6 6 6 6 6 8 8 8 9 11 11 11 8 6 6 5 6 7 14 16 13 12 13 14 14 11 12 11 13 27 32 34 35 35 35 34 35 34 34
4 4 5 5 6 7 6 7 9 9 8 9 11 12 13 11 11 8 6 7 6 7 11 18 15 12 15 14 14 12 14 14 11 24 32 33 34 34 34 35 35 34 34
4 5 5 6 7 7 7 7 8 7 7 10 12 13 14 13 13 9 8 7 8 11 10 14 16 13 12 11 13 14 13 10 14 19 26 28 31 33 35 35 34 33 30
5 6 6 6 7 8 8 8 7 7 8 9 11 13 14 14 12 10 11 10 10 11 12 13 14 14 13 10 10 11 14 9 11 14 20 23 28 32 32 33 33 31 30
6 6 7 7 7 8 8 10 8 9 8 10 11 13 14 18 22 19 16 12 12 12 13 13 14 15 13 11 11 10 15 15 12 10 13 13 13 13 16 23 27 29 30
6 6 7 7 8 9 18 23 17 8 7 10 14 13 14 15 19 25 28 28 25 19 16 15 15 16 17 14 12 13 15 17 18 7 10 14 12 13 12 11 22 29 29
6 7 7 7 8 11 21 22 22 12 8 10 12 13 14 15 21 14 21 25 22 25 26 19 18 17 17 15 16 17 16 18 18 14 14 16 10 12 12 15 27 30 30
6 6 7 8 8 12 21 22 22 11 8 9 11 12 14 13 16 21 17 16 15 15 19 16 13 14 16 15 15 17 18 18 15 11 12 16 12 12 14 12 23 30 31
6 7 8 8 9 11 18 21 21 8 8 10 11 13 16 16 24 30 21 19 18 14 20 26 28 27 31 31 25 15 14 15 16 11 7 12 14 13 12 13 17 27 26
7 8 8 8 9 8 17 22 22 7 9 10 11 12 19 23 28 31 21 18 16 14 14 15 16 19 17 18 25 16 13 15 16 15 7 9 13 13 11 8 7 7 12
Wind_Direction
40 21 333 322 317 332 333 319 309 312 320 322 326 330 326 314 305 302 294 288 278 260 267 275 276 275 275 276 275 271 265 261 259 258 257 256 254 251 248 245 243 242 240
51 4 343 5 3 355 348 341 337 338 332 336 328 317 309 313 313 318 311 309 304 289 276 282 286 285 283 281 281 281 277 271 263 258 256 255 254 253 251 248 244 242 241
54 45 35 21 5 2 4 7 356 344 338 333 323 321 317 306 293 288 284 280 282 283 278 282 289 292 292 290 287 285 283 282 278 271 264 258 254 252 251 250 248 244 241
51 54 42 21 14 23 15 2 360 357 346 336 327 321 320 310 298 293 293 291 293 298 299 298 298 300 298 297 295 292 288 286 285 282 278 272 266 259 253 250 249 247 244
38 48 42 25 11 25 17 5 5 360 343 338 334 328 322 310 306 312 324 340 344 343 340 336 334 326 317 312 312 309 305 301 296 291 287 284 279 273 266 260 254 250 247
38 31 36 30 16 22 17 13 5 356 344 344 332 326 309 303 309 350 354 347 337 338 344 343 340 332 332 327 323 319 314 311 307 302 297 293 288 284 280 275 269 262 255
44 42 28 29 22 22 26 14 8 349 342 334 332 319 300 318 342 1 339 324 323 330 337 335 329 324 317 317 319 318 316 313 311 310 308 306 302 297 293 288 284 279 272
42 43 35 29 21 23 22 6 8 351 341 346 348 333 330 314 2 327 299 317 311 319 328 324 314 305 302 307 310 314 314 311 310 310 312 313 312 310 307 302 297 292 286
45 37 36 32 21 28 17 359 10 0 344 339 354 351 331 306 314 275 324 300 321 329 315 308 304 313 319 317 311 307 303 310 315 312 310 309 309 309 309 309 309 307 303
59 36 33 34 29 29 20 359 3 347 346 332 330 341 299 300 307 305 296 305 312 309 309 313 320 320 317 312 304 305 310 321 318 314 311 309 307 307 307 307 309 309 309
68 41 29 28 32 30 10 353 346 338 334 324 319 313 305 302 297 303 301 297 292 287 299 314 317 312 308 306 309 312 320 319 316 313 310 307 305 304 305 306 307 307 306
64 43 26 18 21 18 353 341 338 331 318 310 306 298 294 298 304 301 301 304 301 292 294 296 298 298 303 307 308 316 318 315 313 311 308 304 303 302 303 303 302 301 300
46 26 18 6 3 357 345 343 335 318 306 306 300 291 288 288 291 293 298 302 302 299 290 280 281 292 305 304 308 316 314 312 310 308 306 305 304 303 302 300 297 296 295
41 15 5 359 356 349 341 334 318 306 305 301 299 295 290 284 284 288 294 303 305 304 297 290 286 292 294 299 307 312 310 309 307 304 303 303 303 301 299 297 295 294 293
26 11 357 355 345 337 329 323 308 302 299 293 289 287 285 281 279 279 283 291 300 305 305 306 300 295 296 299 300 300 297 301 301 300 301 301 300 299 297 296 294 292 291
16 358 353 344 332 323 317 314 306 301 301 297 295 292 291 290 285 282 279 280 285 294 297 302 305 307 306 304 302 300 292 297 298 299 298 299 298 295 293 292 291 290 288
4 352 341 328 319 313 315 314 311 307 301 302 305 305 300 298 294 288 285 283 280 283 292 299 299 300 300 299 298 288 288 286 289 296 300 299 297 295 294 294 293 291 290
349 334 325 317 313 315 315 311 307 305 307 316 313 307 304 305 301 295 288 285 288 289 289 293 297 297 294 294 295 294 301 298 295 299 300 299 299 299 299 297 294 293 291
328 320 316 312 310 309 306 301 299 304 320 314 310 309 308 305 300 295 293 291 288 290 285 289 293 293 291 292 297 298 297 293 296 300 301 300 299 297 295 295 294 294 295
315 309 304 300 299 299 298 296 299 312 307 305 307 306 303 299 299 300 297 286 288 290 289 289 291 294 293 292 296 303 302 294 295 300 296 294 294 296 295 296 296 296 295
306 296 295 296 295 298 300 306 312 310 309 309 305 301 298 301 304 303 302 301 299 296 296 295 296 298 300 305 301 302 302 302 291 288 289 289 290 286 288 290 292 291 289
293 295 297 298 299 305 313 315 315 310 307 308 305 302 299 300 302 307 308 304 304 305 305 303 303 304 304 300 301 300 300 299 297 287 281 289 287 285 286 285 288 291 292
304 308 305 303 300 303 313 315 317 318 307 302 300 302 305 306 309 300 299 304 308 306 306 305 302 300 302 303 300 298 295 293 294 300 296 291 288 289 291 293 296 295 294
309 306 303 300 299 305 316 319 319 318 299 295 298 301 304 304 303 304 305 310 306 302 300 302 296 299 301 298 294 297 298 296 290 285 285 291 294 291 292 289 291 289 288
308 303 300 302 302 307 318 319 319 306 299 300 303 307 307 304 305 312 315 310 306 302 307 307 307 306 306 308 307 304 300 298 298 295 279 284 291 291 287 283 280 283 286
303 304 304 303 304 307 318 320 320 308 308 308 307 304 306 309 311 315 314 311 310 308 309 311 309 305 302 298 301 298 298 297 297 297 280 277 289 295 292 265 258 275 286